Location: Unspecified
(0.0000°N, 0.0000°E)
Time: 00:38:01
(UTC+00:00)

ISS - Visible Passes

Search period start: 22 April 2018 00:00
Search period end: 02 May 2018 00:00
Orbit: 403 x 406 km, 51.6° (Epoch: 22 April)

Date Brightness Start Highest point End Pass type
(mag) Time Alt. Az. Time Alt. Az. Time Alt. Az.
23 Apr -3.6 05:16:31 10° SSW 05:19:47 70° SE 05:23:00 10° NE visible
24 Apr -1.8 04:26:46 21° SSE 04:27:34 23° SE 04:30:15 10° ENE visible
25 Apr -2.6 05:10:13 19° W 05:11:37 25° NW 05:14:22 10° N visible
26 Apr -2.2 04:20:51 30° NNE 04:20:51 30° NNE 04:22:38 10° NNE visible
